�N����,����,�g�[���i���ԁj���x,�g�[�����x,��g�[���i���ցj���x,����
 2002/12/01, 0:00,23.8,50,21.1,15
 2002/12/01, 0:15,23.9,50,21.2,15
 2002/12/01, 0:30,23.6,50,21.2,15.1
 2002/12/01, 0:45,23.2,51,21.1,15.2
 2002/12/01, 1:00,23,52,21.1,15.2
 2002/12/01, 1:15,22.9,52,21,15.3
 2002/12/01, 1:30,22.8,52,20.9,15.3
 2002/12/01, 1:45,22.7,52,20.8,15.4
 2002/12/01, 2:00,23.2,52,20.9,15.5
 2002/12/01, 2:15,23.5,52,21,15.5
 2002/12/01, 2:30,23.5,52,21.1,15.6
 2002/12/01, 2:45,23.7,52,21.2,15.6
 2002/12/01, 3:00,23.7,53,21.3,15.7
 2002/12/01, 3:15,23.8,53,21.3,15.8
 2002/12/01, 3:30,23.8,53,21.4,15.8
 2002/12/01, 3:45,23.9,53,21.5,15.9
 2002/12/01, 4:00,24.1,52,21.5,15.9
 2002/12/01, 4:15,24.1,52,21.6,16
 2002/12/01, 4:30,23.6,53,21.5,16
 2002/12/01, 4:45,23.4,53,21.4,16.1
 2002/12/01, 5:00,23.2,55,21.4,16.3
 2002/12/01, 5:15,23.1,57,21.3,16.4
 2002/12/01, 5:30,23,54,21.2,16.3
 2002/12/01, 5:45,22.9,52,21,16.4
 2002/12/01, 6:00,23.6,48,20.8,15.8
 2002/12/01, 6:15,23.9,47,20.9,15.8
 2002/12/01, 6:30,24.8,45,20.9,15.9
 2002/12/01, 6:45,24.7,46,21,16.2
 2002/12/01, 7:00,24.6,47,21.1,16.2
 2002/12/01, 7:15,23.7,49,21,16.2
 2002/12/01, 7:30,23.4,49,20.9,16.3
 2002/12/01, 7:45,23.1,50,20.8,16.3
 2002/12/01, 8:00,23,50,20.7,16.9
 2002/12/01, 8:15,22.9,51,20.6,17
 2002/12/01, 8:30,22.7,51,20.6,17
 2002/12/01, 8:45,22.7,51,20.5,17.1
 2002/12/01, 9:00,22.6,52,20.5,17.1
 2002/12/01, 9:15,23.2,51,20.5,17.1
 2002/12/01, 9:30,23.7,50,20.6,15.7
 2002/12/01, 9:45,23,52,20.7,15.2
 2002/12/01,10:00,23.2,53,20.7,15.3
 2002/12/01,10:15,23.8,52,20.9,15.2
 2002/12/01,10:30,24,52,21,14.4
 2002/12/01,10:45,23.3,54,21.1,14.5
 2002/12/01,11:00,23,53,21,14.5
 2002/12/01,11:15,22.9,53,21,14.5
 2002/12/01,11:30,22.6,53,20.9,14.6
 2002/12/01,11:45,22.3,54,20.7,14.6
 2002/12/01,12:00,22.3,53,20.8,14.7
 2002/12/01,12:15,22.1,50,20.6,14.8
 2002/12/01,12:30,21.9,49,20.4,14.8
 2002/12/01,12:45,21.8,49,20.2,14.9
 2002/12/01,13:00,21.7,51,20.2,14.9
 2002/12/01,13:15,21.8,51,20.2,15
 2002/12/01,13:30,21.8,51,20.1,15
 2002/12/01,13:45,22,53,20,15.4
 2002/12/01,14:00,22,52,20,15.5
 2002/12/01,14:15,21.9,52,20,15.5
 2002/12/01,14:30,21.9,51,19.9,15.6
 2002/12/01,14:45,21.8,51,19.9,15.6
 2002/12/01,15:00,21.8,51,19.8,15.3
 2002/12/01,15:15,21.9,54,19.8,15.3
 2002/12/01,15:30,21.7,51,19.7,15.5
 2002/12/01,15:45,21.7,49,19.6,15.5
 2002/12/01,16:00,21.5,49,19.5,15.6
 2002/12/01,16:15,21.5,50,19.3,15.6
 2002/12/01,16:30,21.5,50,19.3,15.6
 2002/12/01,16:45,21.5,49,19.2,15.1
 2002/12/01,17:00,21.5,49,19.3,14.9
 2002/12/01,17:15,21.5,54,19.1,14.9
 2002/12/01,17:30,21.4,51,19.2,15
 2002/12/01,17:45,21.7,53,19,15
 2002/12/01,18:00,21.9,54,19.1,15.1
 2002/12/01,18:15,21.7,58,19,15.1
 2002/12/01,18:30,21.7,53,19,15.1
 2002/12/01,18:45,21.7,51,18.9,14.5
 2002/12/01,19:00,21.5,50,18.7,14.4
 2002/12/01,19:15,22.3,50,18.7,14.5
 2002/12/01,19:30,23,48,19.1,14.5
 2002/12/01,19:45,23.2,49,19.4,14.7
 2002/12/01,20:00,23.1,51,19.7,14.5
 2002/12/01,20:15,23.1,52,19.8,14.7
 2002/12/01,20:30,23.2,52,19.9,14.7
 2002/12/01,20:45,23.2,52,20,14.7
 2002/12/01,21:00,23.3,53,20.1,14.7
 2002/12/01,21:15,23.3,53,20.2,14.7
 2002/12/01,21:30,23.5,53,20.4,14
 2002/12/01,21:45,23.6,53,20.4,14.1
 2002/12/01,22:00,23.6,53,20.5,14.1
 2002/12/01,22:15,23.6,53,20.6,14.7
 2002/12/01,22:30,23.7,52,20.6,14.8
 2002/12/01,22:45,23.7,52,20.7,14.8
 2002/12/01,23:00,23.8,52,20.7,13.9
 2002/12/01,23:15,23.8,52,20.8,14.1
 2002/12/01,23:30,23.8,51,20.9,14.2
 2002/12/01,23:45,23.7,52,20.9,14.2
 2002/12/02, 0:00,23.8,52,21,14.3
 2002/12/02, 0:15,24,52,21.1,14.3
 2002/12/02, 0:30,24,53,21.1,14.3
 2002/12/02, 0:45,24,53,21.2,14.4
 2002/12/02, 1:00,24,53,21.2,15.9
 2002/12/02, 1:15,24.1,53,21.2,15.8
 2002/12/02, 1:30,23.5,53,21.2,15.9
 2002/12/02, 1:45,23.1,54,21.1,15.9
 2002/12/02, 2:00,22.9,54,20.9,15.9
 2002/12/02, 2:15,22.6,55,20.9,16
 2002/12/02, 2:30,22.4,55,20.8,16
 2002/12/02, 2:45,22.4,55,20.7,16.1
 2002/12/02, 3:00,22.2,57,20.6,16.1
 2002/12/02, 3:15,22.1,56,20.5,16.2
 2002/12/02, 3:30,21.9,57,20.5,16.3
 2002/12/02, 3:45,21.8,57,20.4,16.5
 2002/12/02, 4:00,21.8,57,20.3,16.6
 2002/12/02, 4:15,21.8,57,20.3,16.6
 2002/12/02, 4:30,21.7,57,20.2,16.6
 2002/12/02, 4:45,21.7,57,20.2,16.7
 2002/12/02, 5:00,21.6,57,20.1,16.7
 2002/12/02, 5:15,21.5,57,20.1,16.7
 2002/12/02, 5:30,21.5,57,20,16.8
 2002/12/02, 5:45,22.3,57,20.1,15.6
 2002/12/02, 6:00,23.2,55,20.2,14.9
 2002/12/02, 6:15,23.2,50,20.6,14.9
 2002/12/02, 6:30,24.4,48,20.6,14.9
 2002/12/02, 6:45,23.1,52,20.8,15
 2002/12/02, 7:00,23.1,54,20.8,15.1
 2002/12/02, 7:15,23.4,49,20.7,15.2
 2002/12/02, 7:30,23.2,49,20.6,15
 2002/12/02, 7:45,23.2,47,20.6,13.6
 2002/12/02, 8:00,23.2,47,20.6,13.7
 2002/12/02, 8:15,23,48,20.6,14
 2002/12/02, 8:30,22.6,46,20.5,14
 2002/12/02, 8:45,23,49,20.4,14
 2002/12/02, 9:00,23.1,51,20.5,14.1
 2002/12/02, 9:15,23,49,20.6,14.1
 2002/12/02, 9:30,22.7,46,20.5,14.2
 2002/12/02, 9:45,22.5,46,20.3,14.2
 2002/12/02,10:00,22.1,47,20,14.5
 2002/12/02,10:15,21.9,46,19.8,14.6
 2002/12/02,10:30,22.4,44,19.8,14.6
 2002/12/02,10:45,22.7,44,19.8,14.6
 2002/12/02,11:00,22.9,41,20.1,14.7
 2002/12/02,11:15,22.8,39,19.9,14.7
 2002/12/02,11:30,22.5,39,19.6,14.8
 2002/12/02,11:45,22.5,37,19.6,14.8
 2002/12/02,12:00,22.4,35,19.8,14.9
 2002/12/02,12:15,22.3,34,19.7,14.9
 2002/12/02,12:30,22.3,33,19.5,13.7
 2002/12/02,12:45,22.5,32,19.5,13.8
 2002/12/02,13:00,22.6,35,19.5,13.8
 2002/12/02,13:15,22.7,31,19.6,13.9
 2002/12/02,13:30,22.4,30,19.5,13.9
 2002/12/02,13:45,22.5,32,19.5,14
 2002/12/02,14:00,22.3,34,19.5,15
 2002/12/02,14:15,22,35,19.5,14.9
 2002/12/02,14:30,22,35,19.5,14.9
 2002/12/02,14:45,22,35,19.4,14.9
 2002/12/02,15:00,22,36,19.4,15
 2002/12/02,15:15,21.9,37,19.4,15
 2002/12/02,15:30,21.7,38,19.6,15.3
 2002/12/02,15:45,21.6,40,19.8,14.5
 2002/12/02,16:00,21.7,41,19.6,14.7
 2002/12/02,16:15,21.8,41,19.5,14.4
 2002/12/02,16:30,21.6,40,19.3,14.6
 2002/12/02,16:45,21.7,45,19.3,14.7
 2002/12/02,17:00,21.6,46,19.1,14.5
 2002/12/02,17:15,21.6,42,19,14.3
 2002/12/02,17:30,21.5,42,19.1,14.4
 2002/12/02,17:45,21.4,43,19,14.4
 2002/12/02,18:00,21.3,43,19.1,14.4
 2002/12/02,18:15,21.2,43,19,14.5
 2002/12/02,18:30,21.2,43,19,14.5
 2002/12/02,18:45,21.1,43,19,14.6
 2002/12/02,19:00,21,43,18.9,14.6
 2002/12/02,19:15,21,44,19.2,14.3
 2002/12/02,19:30,21,43,18.9,14.4
 2002/12/02,19:45,21.1,51,18.8,14.4
 2002/12/02,20:00,21.2,50,18.8,14.4
 2002/12/02,20:15,22.8,42,18.7,14.5
 2002/12/02,20:30,23.6,42,19,14.7
 2002/12/02,20:45,23.9,43,19.4,14.7
 2002/12/02,21:00,23.7,44,19.6,14.9
 2002/12/02,21:15,23.6,44,19.9,15
 2002/12/02,21:30,23.1,45,20,15
 2002/12/02,21:45,22.9,46,19.9,15.4
 2002/12/02,22:00,22.6,46,19.9,15.4
 2002/12/02,22:15,22.5,46,19.8,15.5
 2002/12/02,22:30,22.4,45,19.7,15.5
 2002/12/02,22:45,22.2,46,19.7,16.1
 2002/12/02,23:00,22.3,46,19.7,16.1
 2002/12/02,23:15,22.1,46,19.6,16.2
 2002/12/02,23:30,22.2,46,19.6,16.2
 2002/12/02,23:45,22,46,19.6,16.2
 2002/12/03, 0:00,22,47,19.6,16.3
 2002/12/03, 0:15,21.9,46,19.5,16.8
 2002/12/03, 0:30,22.7,46,19.7,16.9
 2002/12/03, 0:45,22.2,47,19.7,16.9
 2002/12/03, 1:00,22.1,46,19.6,16.9
 2002/12/03, 1:15,21.9,46,19.5,16.9
 2002/12/03, 1:30,21.7,47,19.5,17
 2002/12/03, 1:45,21.7,47,19.5,17
 2002/12/03, 2:00,21.7,47,19.4,17
 2002/12/03, 2:15,21.7,47,19.4,17
 2002/12/03, 2:30,21.5,47,19.4,17.1
 2002/12/03, 2:45,21.6,47,19.3,17.1
 2002/12/03, 3:00,21.4,47,19.3,17.1
 2002/12/03, 3:15,21.4,47,19.3,17.1
 2002/12/03, 3:30,21.5,48,19.3,17.8
 2002/12/03, 3:45,21.3,48,19.3,15.6
 2002/12/03, 4:00,21.3,48,19.2,15.6
 2002/12/03, 4:15,22.5,48,19.3,15.7
 2002/12/03, 4:30,23,46,19.6,15.7
 2002/12/03, 4:45,23.3,46,19.8,15.8
 2002/12/03, 5:00,23.3,47,19.9,16.5
 2002/12/03, 5:15,23.2,47,20,16.5
 2002/12/03, 5:30,23.3,47,20.2,16.6
 2002/12/03, 5:45,23.3,48,20.3,16.4
 2002/12/03, 6:00,23.5,47,20.4,16.5
 2002/12/03, 6:15,23.1,43,20.3,16.4
 2002/12/03, 6:30,23,42,20.2,16.4
 2002/12/03, 6:45,22.7,43,20.4,16.3
 2002/12/03, 7:00,23.1,43,20.2,14.7
 2002/12/03, 7:15,23.6,42,20.2,15.3
 2002/12/03, 7:30,23.5,43,20.4,13.2
 2002/12/03, 7:45,23.4,43,20.3,13.1
 2002/12/03, 8:00,23.4,44,20.4,13.1
 2002/12/03, 8:15,23.5,44,20.5,13.2
 2002/12/03, 8:30,23,45,20.3,13.3
 2002/12/03, 8:45,22.7,45,20.3,13.4
 2002/12/03, 9:00,22.5,45,20.2,13.4
 2002/12/03, 9:15,22.4,45,20.1,13.5
 2002/12/03, 9:30,22.4,45,20,13.6
 2002/12/03, 9:45,22.2,45,20,13.6
 2002/12/03,10:00,22.2,45,19.9,13.7
 2002/12/03,10:15,22,46,19.9,13.8
 2002/12/03,10:30,22,46,19.8,13.8
 2002/12/03,10:45,22,46,19.7,13.9
 2002/12/03,11:00,21.9,46,19.7,14
 2002/12/03,11:15,22.1,42,19.7,14
 2002/12/03,11:30,22.2,40,19.6,14.1
 2002/12/03,11:45,22.4,38,19.7,14.2
 2002/12/03,12:00,22.5,38,19.6,14.2
 2002/12/03,12:15,22.8,37,19.6,14.3
 2002/12/03,12:30,22.6,36,19.6,15
 2002/12/03,12:45,22.4,36,19.5,15
 2002/12/03,13:00,22.4,36,19.5,15.1
 2002/12/03,13:15,22.1,36,19.4,15.1
 2002/12/03,13:30,21.9,38,19.3,15.2
 2002/12/03,13:45,22,34,19.3,15.2
 2002/12/03,14:00,22.3,33,19.2,15.2
 2002/12/03,14:15,22.8,34,19.3,15.3
 2002/12/03,14:30,23,33,19.3,15.3
 2002/12/03,14:45,22.7,33,19.3,15.4
 2002/12/03,15:00,22.3,35,19.2,15.5
 2002/12/03,15:15,21.9,35,19.1,15.5
 2002/12/03,15:30,21.6,34,19,15.5
 2002/12/03,15:45,21.6,38,19,15.6
 2002/12/03,16:00,21.6,37,19,15.5
 2002/12/03,16:15,21.6,41,19.1,15.5
 2002/12/03,16:30,21.8,44,19.2,15.6
 2002/12/03,16:45,21.8,44,19.4,15.6
 2002/12/03,17:00,21.8,44,19.6,16.2
 2002/12/03,17:15,21.8,44,19.5,15.6
 2002/12/03,17:30,21.8,44,19.5,15.7
 2002/12/03,17:45,21.7,44,19.5,15.8
 2002/12/03,18:00,21.6,44,19.5,15.8
 2002/12/03,18:15,22.6,42,19.4,15.8
 2002/12/03,18:30,23.1,39,19.7,15.9
 2002/12/03,18:45,23.2,39,19.7,15.9
 2002/12/03,19:00,23.1,38,19.9,15.9
 2002/12/03,19:15,23.4,41,20.2,16
 2002/12/03,19:30,23.1,41,20.4,16.7
 2002/12/03,19:45,22.8,41,20.3,16.7
 2002/12/03,20:00,22.8,42,20.1,16.8
 2002/12/03,20:15,22.6,42,20.2,16.8
 2002/12/03,20:30,23.1,45,20.2,16.8
 2002/12/03,20:45,23.4,46,20.3,16.9
 2002/12/03,21:00,22.9,47,20.4,16.7
 2002/12/03,21:15,22.7,47,20.3,16.7
 2002/12/03,21:30,22.6,47,20.3,16.7
 2002/12/03,21:45,23.3,47,20.3,14.7
 2002/12/03,22:00,23.8,47,20.4,14.8
 2002/12/03,22:15,23.4,47,20.5,14.8
 2002/12/03,22:30,23.2,47,20.6,14.9
 2002/12/03,22:45,22.8,47,20.5,14.9
 2002/12/03,23:00,23.1,47,20.5,15
 2002/12/03,23:15,23.4,47,20.6,15
 2002/12/03,23:30,23.5,47,20.7,15.1
 2002/12/03,23:45,23.4,48,20.7,15.4
 2002/12/04, 0:00,22.9,48,20.7,15.4
 2002/12/04, 0:15,22.7,49,20.7,15.5
 2002/12/04, 0:30,22.4,50,20.6,15.5
 2002/12/04, 0:45,22.2,51,20.6,15.6
 2002/12/04, 1:00,22.2,50,20.5,15.6
 2002/12/04, 1:15,21.9,51,20.5,15.7
 2002/12/04, 1:30,21.9,50,20.4,15.7
 2002/12/04, 1:45,21.9,51,20.3,15.8
 2002/12/04, 2:00,21.8,51,20.2,15.8
 2002/12/04, 2:15,21.7,51,20.2,15.9
 2002/12/04, 2:30,21.7,51,20.2,15.9
 2002/12/04, 2:45,21.5,52,20.1,16
 2002/12/04, 3:00,21.5,52,20.1,16
 2002/12/04, 3:15,21.4,52,20.1,16.1
 2002/12/04, 3:30,21.4,52,20,16.1
 2002/12/04, 3:45,21.3,52,20,16.2
 2002/12/04, 4:00,21.4,52,20,16.2
 2002/12/04, 4:15,21.4,52,19.9,16.3
 2002/12/04, 4:30,21.2,52,19.9,16.3
 2002/12/04, 4:45,21.3,53,19.9,16.4
 2002/12/04, 5:00,21.3,53,19.8,16.4
 2002/12/04, 5:15,21.3,53,19.8,16.4
 2002/12/04, 5:30,22.5,53,20,14.8
 2002/12/04, 5:45,23.1,51,20.1,14.9
 2002/12/04, 6:00,23.5,49,20.3,14.9
 2002/12/04, 6:15,23.8,51,20.5,15
 2002/12/04, 6:30,23.6,48,20.8,15
 2002/12/04, 6:45,23,49,20.8,15.3
 2002/12/04, 7:00,22.7,51,20.6,14.9
 2002/12/04, 7:15,22.8,52,20.5,14.9
 2002/12/04, 7:30,22.7,51,20.5,15
 2002/12/04, 7:45,22.7,50,20.5,14.6
 2002/12/04, 8:00,22.4,49,20.4,14.6
 2002/12/04, 8:15,22.2,50,20.3,14.7
 2002/12/04, 8:30,22.8,51,20.3,14.7
 2002/12/04, 8:45,23.2,50,20.4,14.8
 2002/12/04, 9:00,23.4,50,20.4,14.8
 2002/12/04, 9:15,23.6,49,20.5,14.9
 2002/12/04, 9:30,23.3,50,20.6,15.2
 2002/12/04, 9:45,22.9,50,20.5,14.4
 2002/12/04,10:00,22.7,50,20.5,14.4
 2002/12/04,10:15,22.4,50,20.4,14.5
 2002/12/04,10:30,22.2,51,20.3,14.5
 2002/12/04,10:45,22.1,50,20.2,14.6
 2002/12/04,11:00,22,51,20.2,14.6
 2002/12/04,11:15,21.8,51,20.1,14.7
 2002/12/04,11:30,21.8,51,20,14.8
 2002/12/04,11:45,21.6,52,20,14.8
 2002/12/04,12:00,21.7,52,20,14.9
 2002/12/04,12:15,22.2,51,20,14.9
 2002/12/04,12:30,22.3,50,20,15
 2002/12/04,12:45,22.3,50,20,15
 2002/12/04,13:00,21.9,50,20,15.1
 2002/12/04,13:15,22.4,50,20,15.2
 2002/12/04,13:30,22.5,50,20,15.2
 2002/12/04,13:45,22,50,20,16.1
 2002/12/04,14:00,21.9,50,20,16.2
 2002/12/04,14:15,21.9,51,19.9,16.2
 2002/12/04,14:30,21.9,51,19.9,16.2
 2002/12/04,14:45,21.8,51,19.9,16.3
 2002/12/04,15:00,21.7,50,19.8,16.3
 2002/12/04,15:15,21.6,51,19.8,16.3
 2002/12/04,15:30,23.1,51,20,15.9
 2002/12/04,15:45,24.4,49,20.3,14.9
 2002/12/04,16:00,25.5,48,20.6,15
 2002/12/04,16:15,25.6,49,20.9,15
 2002/12/04,16:30,25,51,21.1,15.1
 2002/12/04,16:45,25.2,51,21.3,15.6
 2002/12/04,17:00,25.1,52,21.5,15.6
 2002/12/04,17:15,25,51,21.7,15.6
 2002/12/04,17:30,25,52,21.8,16
 2002/12/04,17:45,25.1,51,21.9,16
 2002/12/04,18:00,25.1,52,21.9,16
 2002/12/04,18:15,25.2,51,22,16.1
 2002/12/04,18:30,24.5,52,22,15.5
 2002/12/04,18:45,24,52,21.8,15.5
 2002/12/04,19:00,23.6,51,21.6,14.7
 2002/12/04,19:15,23.5,52,21.9,14.8
 2002/12/04,19:30,23.4,53,21.6,14.8
 2002/12/04,19:45,23.2,53,21.4,14.9
 2002/12/04,20:00,23.1,52,21.1,13.8
 2002/12/04,20:15,23,51,21,13.9
 2002/12/04,20:30,22.9,52,20.8,13.9
 2002/12/04,20:45,22.9,53,20.7,14
 2002/12/04,21:00,25.6,49,20.8,14
 2002/12/04,21:15,26.2,48,21.1,14.8
 2002/12/04,21:30,25,51,21.3,14.3
 2002/12/04,21:45,24.7,52,21.3,14.2
 2002/12/04,22:00,24.1,52,21.3,14.3
 2002/12/04,22:15,23.9,53,21.2,14.4
 2002/12/04,22:30,23.7,54,21.2,14.4
 2002/12/04,22:45,23.6,53,21.1,14.5
 2002/12/04,23:00,23.5,53,21.1,14.5
 2002/12/04,23:15,24.2,53,21.1,15.5
 2002/12/04,23:30,24.2,53,21.2,15.5
 2002/12/04,23:45,24.4,53,21.4,15.6
 2002/12/05, 0:00,24.5,53,21.5,15.6
 2002/12/05, 0:15,24.7,53,21.6,15.7
 2002/12/05, 0:30,24.8,53,21.7,15.7
 2002/12/05, 0:45,24.8,53,21.8,15.8
 2002/12/05, 1:00,24.9,53,21.9,16.8
 2002/12/05, 1:15,24.9,53,21.9,16.9
 2002/12/05, 1:30,24.2,53,21.9,16.9
 2002/12/05, 1:45,23.9,53,21.7,16.9
 2002/12/05, 2:00,23.6,54,21.6,17
 2002/12/05, 2:15,23.3,54,21.6,17
 2002/12/05, 2:30,23.1,56,21.4,17.1
 2002/12/05, 2:45,23,56,21.3,17.1
 2002/12/05, 3:00,22.7,57,21.3,17.1
 2002/12/05, 3:15,22.7,57,21.2,17.2
 2002/12/05, 3:30,22.6,57,21.1,17.2
 2002/12/05, 3:45,22.5,57,21.1,17.3
 2002/12/05, 4:00,22.5,57,21,17.3
 2002/12/05, 4:15,22.3,57,21,17.3
 2002/12/05, 4:30,22.3,57,20.9,17.4
 2002/12/05, 4:45,22.2,57,20.9,17.4
 2002/12/05, 5:00,22.3,57,20.8,17.5
 2002/12/05, 5:15,22.2,57,20.8,17.5
 2002/12/05, 5:30,23.1,57,20.9,17.5
 2002/12/05, 5:45,23.7,56,21,16.4
 2002/12/05, 6:00,24.1,59,21.2,15.6
 2002/12/05, 6:15,24.2,57,21.4,15.7
 2002/12/05, 6:30,24.1,54,21.3,15.8
 2002/12/05, 6:45,23.8,54,21.4,16
 2002/12/05, 7:00,24.6,53,21.3,16.1
 2002/12/05, 7:15,25.1,51,21.4,16.1
 2002/12/05, 7:30,25.1,53,21.5,16.6
 2002/12/05, 7:45,24.5,52,21.4,16.6
 2002/12/05, 8:00,24,53,21.4,16.7
 2002/12/05, 8:15,24.7,53,21.5,16.7
 2002/12/05, 8:30,24.2,50,21.4,16.7
 2002/12/05, 8:45,23.9,50,21.4,16.8
 2002/12/05, 9:00,23.6,51,21.4,16.8
 2002/12/05, 9:15,23.5,52,21.3,16.9
 2002/12/05, 9:30,23.7,52,21.3,16.9
 2002/12/05, 9:45,23.6,52,21.3,17
 2002/12/05,10:00,23.3,51,21.1,15.1
 2002/12/05,10:15,23,54,21.1,15.2
 2002/12/05,10:30,23,54,21.1,15.2
 2002/12/05,10:45,22.8,55,21,15.3
 2002/12/05,11:00,22.7,56,21,15.4
 2002/12/05,11:15,22.8,57,21,15.4
 2002/12/05,11:30,22.9,57,20.9,15.5
 2002/12/05,11:45,22.7,57,20.9,15.6
 2002/12/05,12:00,22.9,57,20.9,15.6
 2002/12/05,12:15,23.1,56,20.9,15.7
 2002/12/05,12:30,23.2,56,21,15.8
 2002/12/05,12:45,23.3,52,21.1,15.8
 2002/12/05,13:00,23.4,49,21,15.9
 2002/12/05,13:15,23.3,49,21,15.9
 2002/12/05,13:30,23.2,49,21,16
 2002/12/05,13:45,23.1,49,20.9,16.1
 2002/12/05,14:00,23,49,20.9,16.1
 2002/12/05,14:15,23.1,47,20.9,16.2
 2002/12/05,14:30,23.1,45,20.8,16.3
 2002/12/05,14:45,23.2,45,20.8,16.3
 2002/12/05,15:00,23,45,20.7,16.4
 2002/12/05,15:15,22.7,46,20.7,16.4
 2002/12/05,15:30,23.4,49,20.9,16.5
 2002/12/05,15:45,24,51,21,14.7
 2002/12/05,16:00,24.5,53,21.6,14.2
 2002/12/05,16:15,24.6,51,21.7,14.2
 2002/12/05,16:30,23.9,52,21.6,14.3
 2002/12/05,16:45,23.7,53,21.4,14.4
 2002/12/05,17:00,24.5,52,21.9,14.4
 2002/12/05,17:15,24.5,48,21.9,14.5
 2002/12/05,17:30,24.1,45,21.9,14.6
 2002/12/05,17:45,24,43,21.7,14.6
 2002/12/05,18:00,23.8,43,21.6,14.7
 2002/12/05,18:15,23.9,46,21.6,14.8
 2002/12/05,18:30,24.1,46,21.5,14.8
 2002/12/05,18:45,24.1,46,21.5,14.9
 2002/12/05,19:00,24.2,46,21.5,15
 2002/12/05,19:15,24.2,46,21.4,15.1
 2002/12/05,19:30,24.6,45,21.4,15.1
 2002/12/05,19:45,24.9,45,21.5,15.2
 2002/12/05,20:00,25.2,45,21.4,15.3
 2002/12/05,20:15,25.5,47,21.6,15.4
 2002/12/05,20:30,25.7,47,21.7,15.2
 2002/12/05,20:45,24.9,48,21.7,15.3
 2002/12/05,21:00,24.5,49,21.6,14
 2002/12/05,21:15,24.2,49,21.6,14.1
 2002/12/05,21:30,24.1,50,21.6,14.6
 2002/12/05,21:45,24,51,21.6,14.6
 2002/12/05,22:00,24.4,52,21.7,14.7
 2002/12/05,22:15,24.9,51,21.7,14.8
 2002/12/05,22:30,25.1,50,21.8,14.8
 2002/12/05,22:45,25.4,50,21.9,14.9
 2002/12/05,23:00,24.8,51,22,15.2
 2002/12/05,23:15,24.3,52,21.9,15.4
 2002/12/05,23:30,24,52,21.8,15.5
 2002/12/05,23:45,23.7,52,21.8,15.5
 2002/12/06, 0:00,23.9,52,21.7,15.6
 2002/12/06, 0:15,24.1,51,21.7,15.6
 2002/12/06, 0:30,24.3,50,21.7,15.7
 2002/12/06, 0:45,24.4,51,21.8,15.8
 2002/12/06, 1:00,24.2,51,21.8,15.8
 2002/12/06, 1:15,24.2,50,21.8,15.9
 2002/12/06, 1:30,24.3,50,21.7,15.9
 2002/12/06, 1:45,24.3,50,21.7,16
 2002/12/06, 2:00,24.3,50,21.8,16.1
 2002/12/06, 2:15,24.1,50,21.8,16.1
 2002/12/06, 2:30,24,51,21.8,16.2
 2002/12/06, 2:45,24.1,51,21.8,16.3
 2002/12/06, 3:00,24.3,51,21.8,16.3
 2002/12/06, 3:15,24.4,51,21.8,16.4
 2002/12/06, 3:30,24.4,51,21.9,16.4
 2002/12/06, 3:45,24.4,51,21.9,16.5
 2002/12/06, 4:00,24.4,50,21.9,16.6
 2002/12/06, 4:15,24.5,50,21.9,16.6
 2002/12/06, 4:30,24.4,50,21.9,16.7
 2002/12/06, 4:45,24.4,50,21.9,16.7
 2002/12/06, 5:00,24.2,51,21.9,16.8
 2002/12/06, 5:15,24.2,51,21.9,16.8
 2002/12/06, 5:30,24.1,50,21.9,16.9
 2002/12/06, 5:45,23.6,51,21.8,18.4
 2002/12/06, 6:00,24,52,21.8,15.6
 2002/12/06, 6:15,24.4,52,21.8,15.2
 2002/12/06, 6:30,24.6,50,21.9,15.3
 2002/12/06, 6:45,24.2,50,22.1,15.4
 2002/12/06, 7:00,24.5,48,22,15.4
 2002/12/06, 7:15,24,48,22.1,15.5
 2002/12/06, 7:30,23.8,48,22.1,13.7
 2002/12/06, 7:45,23.6,48,22,14
 2002/12/06, 8:00,23.4,48,21.8,14.1
 2002/12/06, 8:15,23.2,48,21.6,14.2
 2002/12/06, 8:30,23,48,21.4,14.2
 2002/12/06, 8:45,22.9,48,21.2,14.3
 2002/12/06, 9:00,22.7,48,21.1,14.4
 2002/12/06, 9:15,22.6,48,21,14.4
 2002/12/06, 9:30,22.6,47,20.9,14.5
 2002/12/06, 9:45,22.5,47,20.8,14.6
 2002/12/06,10:00,22.4,47,20.7,14.6
 2002/12/06,10:15,22.3,47,20.6,14.7
 2002/12/06,10:30,22.2,46,20.5,14.8
 2002/12/06,10:45,22.1,46,20.4,14.8
 2002/12/06,11:00,22.2,46,20.3,14.9
 2002/12/06,11:15,22.3,46,20.3,16
 2002/12/06,11:30,22.4,43,20.2,16
 2002/12/06,11:45,22.5,38,20.2,16.1
 2002/12/06,12:00,22.6,36,20.1,16.1
 2002/12/06,12:15,23.1,37,20,16.2
 2002/12/06,12:30,23.7,35,20.1,16.2
 2002/12/06,12:45,23,37,20.1,15.6
 2002/12/06,13:00,23.1,37,20.1,15.7
 2002/12/06,13:15,23.1,37,20.1,15.7
 2002/12/06,13:30,23.2,37,20.1,15.8
 2002/12/06,13:45,23,39,20.1,15.8
 2002/12/06,14:00,22.6,39,20.1,15.9
 2002/12/06,14:15,22.5,40,20,15.9
 2002/12/06,14:30,22.5,36,19.9,16
 2002/12/06,14:45,22.3,33,19.8,16
 2002/12/06,15:00,23.1,30,19.7,16.1
 2002/12/06,15:15,23.9,31,19.8,16.1
 2002/12/06,15:30,24.1,33,19.9,16.2
 2002/12/06,15:45,24.7,33,20,16.2
 2002/12/06,16:00,23.5,35,20.1,16.3
 2002/12/06,16:15,23.1,38,20,16.7
 2002/12/06,16:30,23.1,39,20,16.7
 2002/12/06,16:45,22.9,39,20.3,16.7
 2002/12/06,17:00,22.9,40,20.3,16.9
 2002/12/06,17:15,22.8,40,20.2,17
 2002/12/06,17:30,22.8,41,20.2,17
 2002/12/06,17:45,22.8,42,20.3,17
 2002/12/06,18:00,22.7,41,20.3,17.1
 2002/12/06,18:15,23.5,43,20.2,17.3
 2002/12/06,18:30,24.8,41,20.5,17.3
 2002/12/06,18:45,25.2,43,20.8,17.3
 2002/12/06,19:00,25.3,43,21.2,17.4
 2002/12/06,19:15,25.5,43,21.4,17.4
 2002/12/06,19:30,25.4,36,21.4,17.4
 2002/12/06,19:45,25.1,33,21.3,17.4
 2002/12/06,20:00,25.2,35,21.2,17.5
 2002/12/06,20:15,25.1,34,21.2,17.4
 2002/12/06,20:30,24.5,40,21.2,17.4
 2002/12/06,20:45,24.2,42,21.3,17.5
 2002/12/06,21:00,24,41,21.2,17.5
 2002/12/06,21:15,24.3,41,21.1,15
 2002/12/06,21:30,24.6,41,21.2,14.9
 2002/12/06,21:45,24.9,42,21.3,15
 2002/12/06,22:00,25,42,21.4,14.2
 2002/12/06,22:15,25.1,42,21.6,14.2
 2002/12/06,22:30,25.1,43,21.6,14.3
 2002/12/06,22:45,25.1,43,21.6,14.3
 2002/12/06,23:00,25.2,43,21.8,14.4
 2002/12/06,23:15,25.2,42,21.8,14.4
 2002/12/06,23:30,24.6,37,21.6,14.5
 2002/12/06,23:45,24.7,39,21.5,14.6
 2002/12/07, 0:00,24.8,40,21.5,14.6
 2002/12/07, 0:15,24.9,40,21.5,14.7
 2002/12/07, 0:30,24.9,41,21.6,14.7
 2002/12/07, 0:45,24.8,41,21.6,14.8
 2002/12/07, 1:00,24.9,41,21.7,14.8
 2002/12/07, 1:15,25,41,21.7,16.4
 2002/12/07, 1:30,24.4,42,21.7,14.6
 2002/12/07, 1:45,23.8,41,21.5,14.6
 2002/12/07, 2:00,23.5,42,21.4,14.7
 2002/12/07, 2:15,23.2,43,21.3,14.7
 2002/12/07, 2:30,23.1,43,21.1,14.8
 2002/12/07, 2:45,22.9,44,21,14.8
 2002/12/07, 3:00,22.8,45,20.9,14.9
 2002/12/07, 3:15,22.6,45,20.8,14.9
 2002/12/07, 3:30,22.6,45,20.8,15
 2002/12/07, 3:45,22.5,45,20.7,15
 2002/12/07, 4:00,22.3,45,20.6,15.1
 2002/12/07, 4:15,22.3,45,20.5,15.2
 2002/12/07, 4:30,22.2,46,20.4,15.2
 2002/12/07, 4:45,22.2,45,20.4,15.3
 2002/12/07, 5:00,22.1,45,20.3,15.3
 2002/12/07, 5:15,22,45,20.2,15.4
 2002/12/07, 5:30,21.9,45,20.2,15.5
 2002/12/07, 5:45,23.9,44,20.3,15.5
 2002/12/07, 6:00,24.9,45,20.6,15.6
 2002/12/07, 6:15,24.9,46,20.9,15.6
 2002/12/07, 6:30,24.2,46,21.1,14.9
 2002/12/07, 6:45,24.2,46,21.1,15.1
 2002/12/07, 7:00,23.8,42,21,15.1
 2002/12/07, 7:15,23.5,39,20.8,15.2
 2002/12/07, 7:30,23.3,37,20.6,15.2
 2002/12/07, 7:45,23.8,40,20.7,15.5
 2002/12/07, 8:00,24.1,41,21,14.8
 2002/12/07, 8:15,24.3,42,21.2,14.5
 2002/12/07, 8:30,24.4,43,21.2,13.7
 2002/12/07, 8:45,24.4,42,21.2,13.7
 2002/12/07, 9:00,23.8,43,21.2,13.7
 2002/12/07, 9:15,23.4,43,21,13.8
 2002/12/07, 9:30,23.1,43,20.9,13.8
 2002/12/07, 9:45,22.7,43,20.7,13.9
 2002/12/07,10:00,22.6,43,20.6,13.9
 2002/12/07,10:15,22.3,43,20.5,14
 2002/12/07,10:30,22.2,43,20.4,14.1
 2002/12/07,10:45,22.1,43,20.3,14.1
 2002/12/07,11:00,22,44,20.2,14.2
 2002/12/07,11:15,21.9,44,20.1,14.3
 2002/12/07,11:30,21.7,44,20.1,14.3
 2002/12/07,11:45,21.8,44,20,14.4
 2002/12/07,12:00,21.6,44,19.9,14.4
 2002/12/07,12:15,21.6,44,19.8,14.5
 2002/12/07,12:30,21.5,44,19.8,14.5
 2002/12/07,12:45,21.5,43,19.7,14.6
 2002/12/07,13:00,21.3,44,19.7,14.6
 2002/12/07,13:15,21.4,44,19.6,14.7
 2002/12/07,13:30,21.2,45,19.5,14.7
 2002/12/07,13:45,21.2,45,19.5,14.8
 2002/12/07,14:00,21.3,45,19.4,14.8
 2002/12/07,14:15,21.2,45,19.4,14.9
 2002/12/07,14:30,21.1,44,19.4,14.9
 2002/12/07,14:45,21.1,44,19.3,15
 2002/12/07,15:00,21.1,44,19.3,15.1
 2002/12/07,15:15,21.1,45,19.2,15.1
 2002/12/07,15:30,21,45,19.2,15.2
 2002/12/07,15:45,20.9,45,19.2,15.2
 2002/12/07,16:00,21,45,19.2,15.3
 2002/12/07,16:15,20.9,45,19.1,15.3
 2002/12/07,16:30,21,46,19.1,15.4
 2002/12/07,16:45,22.5,45,19.3,15.4
 2002/12/07,17:00,21.6,43,19.2,15.5
 2002/12/07,17:15,21.5,44,19.3,15.5
 2002/12/07,17:30,21.4,45,19.3,15.6
 2002/12/07,17:45,21.3,49,19.3,15.6
 2002/12/07,18:00,21.4,50,19.3,15.7
 2002/12/07,18:15,21.4,49,19.3,15.7
 2002/12/07,18:30,21.3,45,19.2,15.8
 2002/12/07,18:45,22.1,44,19.3,15.8
 2002/12/07,19:00,22.6,43,19.5,15.9
 2002/12/07,19:15,22.8,42,19.6,15.9
 2002/12/07,19:30,23.1,41,19.6,15.9
 2002/12/07,19:45,23.2,41,19.7,16
 2002/12/07,20:00,22.9,45,19.7,15.4
 2002/12/07,20:15,22.6,45,19.8,15.4